TimePDT,TemperatureF,Dew PointF,Humidity,Sea Level PressureIn,VisibilityMPH,Wind Direction,Wind SpeedMPH,Gust SpeedMPH,PrecipitationIn,Events,Conditions,WindDirDegrees,DateUTC
12:53 AM,48.9,39.0,69,30.08,10.0,SW,9.2,-,N/A,,Clear,220,2013-03-16 07:53:00
1:53 AM,45.0,37.9,76,30.08,10.0,Calm,Calm,-,N/A,,Clear,0,2013-03-16 08:53:00
2:53 AM,37.0,34.0,89,30.08,10.0,Calm,Calm,-,N/A,,Clear,0,2013-03-16 09:53:00
3:53 AM,46.9,39.0,74,30.06,10.0,SSW,10.4,-,N/A,,Clear,210,2013-03-16 10:53:00
4:53 AM,45.0,37.9,76,30.06,10.0,West,3.5,-,N/A,,Mostly Cloudy,270,2013-03-16 11:53:00
5:53 AM,51.1,39.9,66,30.04,10.0,WSW,13.8,-,N/A,,Overcast,240,2013-03-16 12:53:00
6:53 AM,48.0,39.0,71,30.04,10.0,SW,10.4,-,N/A,,Scattered Clouds,220,2013-03-16 13:53:00
7:53 AM,48.9,39.9,71,30.04,10.0,SW,10.4,-,N/A,,Mostly Cloudy,220,2013-03-16 14:53:00
8:53 AM,52.0,39.9,63,30.03,10.0,SW,16.1,-,N/A,,Scattered Clouds,230,2013-03-16 15:53:00
9:53 AM,55.0,39.9,57,30.04,10.0,WSW,12.7,-,N/A,,Mostly Cloudy,250,2013-03-16 16:53:00
10:53 AM,55.0,39.0,55,30.03,10.0,WSW,12.7,23.0,N/A,,Clear,240,2013-03-16 17:53:00
11:53 AM,55.9,37.0,49,30.01,10.0,West,16.1,25.3,N/A,,Clear,260,2013-03-16 18:53:00
12:53 PM,57.9,37.9,47,29.97,10.0,West,13.8,-,N/A,,Clear,260,2013-03-16 19:53:00
1:53 PM,57.9,37.0,46,29.94,10.0,West,11.5,-,N/A,,Mostly Cloudy,280,2013-03-16 20:53:00
2:53 PM,59.0,34.0,39,29.89,10.0,West,10.4,-,N/A,,Overcast,260,2013-03-16 21:53:00
3:53 PM,55.0,36.0,49,29.89,10.0,West,17.3,21.9,N/A,,Overcast,270,2013-03-16 22:53:00
4:53 PM,53.1,36.0,52,29.89,10.0,WSW,10.4,21.9,N/A,,Overcast,250,2013-03-16 23:53:00
5:53 PM,54.0,37.0,53,29.86,10.0,West,12.7,-,N/A,,Partly Cloudy,260,2013-03-17 00:53:00
6:53 PM,51.1,34.0,52,29.84,10.0,West,13.8,19.6,N/A,,Scattered Clouds,260,2013-03-17 01:53:00
7:53 PM,48.9,35.1,59,29.84,10.0,WSW,8.1,-,N/A,,Mostly Cloudy,250,2013-03-17 02:53:00
8:53 PM,45.0,37.9,76,29.88,10.0,WSW,18.4,25.3,0.00,Rain,Light Rain,250,2013-03-17 03:53:00
9:53 PM,42.1,35.1,76,29.90,10.0,WSW,20.7,25.3,0.00,,Overcast,240,2013-03-17 04:53:00
10:53 PM,39.9,30.9,70,29.94,10.0,WSW,13.8,26.5,N/A,,Clear,240,2013-03-17 05:53:00
11:53 PM,39.9,30.0,68,29.97,10.0,WSW,15.0,24.2,N/A,,Partly Cloudy,250,2013-03-17 06:53:00